Regional Weather Roundup
Issued by NWS

Home | Current Version | Previous Version | Text Only | Print | Product List | Glossary On
Versions: 1 2 3 4 5 6 7 8 9 10 11 12 13 14 15 16 17 18 19 20 21 22 23 24 25 26 27 28 29 30 31 32 33 34 35 36 37 38 39 40 41 42 43 44 45 46 47 48 49 50
000
ASUS43 KLSX 270959
RWRMO

WEATHER SUMMARY FOR MISSOURI
NATIONAL WEATHER SERVICE SPRINGFIELD MO
500 AM CDT MON MAR 27 2017

NOTE: "FAIR" INDICATES FEW OR NO CLOUDS BELOW 12,000 FEET WITH NO
       SIGNIFICANT WEATHER AND/OR OBSTRUCTIONS TO VISIBILITY.
       CURRENT SKY AND/OR WEATHER CONDITIONS ARE NOT AVAILABLE FOR
       CHILLICOTHE AND FARMINGTON.

MOZ001>031-035>038-043-044-053-054-271100-
...NORTHERN AND WESTERN MISSOURI...

CITY           SKY/WX    TMP DP  RH WIND       PRES   REMARKS
KANSAS CTY INT CLOUDY    46  45  96 N7        29.85R
KANSAS C DTWN  CLOUDY    48  45  89 NE8       29.83R
LEE`S SUMMIT   LGT RAIN  47  46  97 N8        29.82R
ST JOSEPH      LGT RAIN  46  46 100 N9        29.87S FOG
CHILLICOTHE      N/A     47  45  93 NE5       29.88F
KIRKSVILLE     CLOUDY    46  44  93 CALM      29.90R

$$
MOZ066>068-077>081-088>096-101>105-271100-
...SOUTHWEST MISSOURI...

CITY           SKY/WX    TMP DP  RH WIND       PRES   REMARKS
SPRINGFIELD    LGT RAIN  55  54  96 E8        29.78F
JOPLIN         CLOUDY    56  55  97 SE10      29.74F

$$
MOZ032>034-039>042-045>050-055>058-069>072-271100-
...CENTRAL MISSOURI...

CITY           SKY/WX    TMP DP  RH WIND       PRES   REMARKS
COLUMBIA       LGT RAIN  49  49 100 E8        29.84F FOG
JEFFERSON CITY RAIN      53  50  89 E7        29.84F FOG
ROLLA          LGT RAIN  52  51  97 E9        29.84S
SEDALIA        LGT RAIN  50  48  93 NE6       29.84S
WARRENSBURG    LGT RAIN  46  45  93 NE14      29.79F
OSAGE BEACH    LGT RAIN N/A N/A N/A E9        29.81F

$$
MOZ051-052-059>065-271100-
...EAST CENTRAL MISSOURI...

CITY           SKY/WX    TMP DP  RH WIND       PRES   REMARKS
ST LOUIS INTL  CLOUDY    52  48  86 E6        29.85F
SPIRIT OF STL  MOCLDY    51  50  96 NE3       29.85F
ST CHARLES     MOCLDY    51  49  92 NE9       29.85F

$$
MOZ072>076-082>087-097>100-106>115-271100-
...SOUTH CENTRAL AND SOUTHEAST MISSOURI...

CITY           SKY/WX    TMP DP  RH WIND       PRES   REMARKS
CAPE GIRARDEAU CLOUDY    53  49  86 E8        29.84F
FARMINGTON     CLOUDY    52  49  89 E6        29.84F
POPLAR BLUFF   LGT RAIN  58  54  86 S12       29.86R
WEST PLAINS    LGT RAIN  55  54  96 E6        29.83F FOG

$$



USA.gov is the U.S. government's official web portal to all federal, state and local government web resources and services.